Toledo, OH

12:16 AM EST on December 13, 2019 (GMT -0500)
Toledo Express

Weather History for KTOL - November, 2019

Change the Weather History Date:

Tuesday, November 12, 2019

  Actual Average Record
Temperature  
Mean Temperature 22 °F 43 °F  
Max Temperature 28 °F 52 °F 72 °F (1964)
Min Temperature 15 °F 35 °F 15 °F (1976)
Degree Days  
Heating Degree Days 43 22  
Month to date heating degree days 316 239  
Since 1 July heating degree days 622 765  
Cooling Degree Days 0 0  
Month to date cooling degree days 0 0  
Year to date cooling degree days 1105 793  
Moisture  
Dew Point 12 °F    
Average Humidity 61    
Maximum Humidity 80    
Minimum Humidity 42    
Precipitation  
Precipitation T in 0.10 in 1.22 in (1992)
Month to date precipitation 0.44 1.08  
Year to date precipitation 41.60 29.78  
Snow  
Snow T in 0.00 in - ()
Month to date snowfall 4.0 0.4  
Since 1 July snowfall 4.0 0.6  
Since 1 September snowfall 4.0 0.6  
Snow Depth 4.00 in    
Sea Level Pressure  
Sea Level Pressure 30.31 in    
Wind  
Wind Speed 10 mph (WNW)    
Max Wind Speed 17 mph    
Max Gust Speed 24 mph    
Visibility 9 miles    
Events Snow    
T = Trace of Precipitation, MM = Missing Value Source: NWS Daily Summary

Daily Weather History Graph

Daily Weather History Graph

Search for Another Location

Airport or City:

Astronomy

Nov. 12, 2019 Rise Set
Actual Time 7:20 AM EST 5:18 PM EST
Civil Twilight 6:50 AM EST 5:47 PM EST
Nautical Twilight 6:17 AM EST 6:20 PM EST
Astronomical Twilight 5:44 AM EST 6:53 PM EST
Moon 5:44 PM EST (11/12) 7:10 AM EST (11/12)
Length of Visible Light 10h 56m
Length of Day
9h 57m
Full, 100% of the Moon is Illuminated
Nov 12
Full
Nov 19
Last Quarter
Nov 26
New
Dec 4
First Quarter
Dec 12
Full

Hourly Weather History & Observations

Time (EST) Temp. Windchill Dew Point Humidity Pressure Visibility Wind Dir Wind Speed Gust Speed Precip Events Conditions
12:05 AM 24.1 °F 12.0 °F 18.0 °F 77% 30.14 in 2.0 mi NNW 13.8 mph - 0.00 in Snow Light Snow
12:17 AM 24.1 °F 12.5 °F 17.1 °F 75% 30.15 in 6.0 mi NNW 12.7 mph - 0.00 in Snow Light Snow
12:24 AM 24.1 °F 12.5 °F 17.1 °F 75% 30.15 in 6.0 mi NW 12.7 mph - 0.00 in Snow Light Snow
12:42 AM 24.1 °F 11.5 °F 16.0 °F 71% 30.15 in 7.0 mi NNW 15.0 mph - 0.00 in Snow Light Snow
1:52 AM 23.0 °F 13.1 °F 16.0 °F 74% 30.20 in 8.0 mi NW 9.2 mph - 0.00 in Snow Light Snow
2:52 AM 23.0 °F 13.1 °F 16.0 °F 74% 30.21 in 10.0 mi NW 9.2 mph - 0.00 in   Overcast
3:52 AM 21.9 °F 12.5 °F 15.1 °F 75% 30.22 in 10.0 mi NW 8.1 mph - N/A   Overcast
4:52 AM 21.9 °F 11.7 °F 14.0 °F 72% 30.23 in 10.0 mi WNW 9.2 mph - 0.00 in   Overcast
5:52 AM 21.0 °F 11.4 °F 14.0 °F 74% 30.25 in 10.0 mi WNW 8.1 mph - N/A   Overcast
6:52 AM 19.9 °F 10.1 °F 12.9 °F 74% 30.27 in 10.0 mi WNW 8.1 mph - N/A   Overcast
7:52 AM 19.9 °F 9.3 °F 12.9 °F 74% 30.30 in 10.0 mi WNW 9.2 mph - N/A   Overcast
8:52 AM 19.9 °F 8.6 °F 12.0 °F 71% 30.34 in 10.0 mi NW 10.4 mph - N/A   Clear
9:52 AM 21.9 °F 9.2 °F 12.0 °F 66% 30.36 in 10.0 mi NW 13.8 mph - N/A   Clear
10:52 AM 24.1 °F 13.1 °F 12.0 °F 60% 30.37 in 10.0 mi NW 11.5 mph - N/A   Partly Cloudy
11:52 AM 26.1 °F 15.6 °F 12.0 °F 55% 30.36 in 10.0 mi NW 11.5 mph - N/A   Clear
11:56 AM 26.1 °F 15.6 °F 10.9 °F 53% 30.33 in 10.0 mi NW 11.5 mph - N/A   Partly Cloudy
12:52 PM 27.0 °F 16.1 °F 12.0 °F 53% 30.35 in 10.0 mi NW 12.7 mph - N/A   Partly Cloudy
1:52 PM 28.0 °F 16.5 °F 10.9 °F 49% 30.36 in 10.0 mi NW 15.0 mph - N/A   Partly Cloudy
2:52 PM 28.0 °F 17.5 °F 8.1 °F 43% 30.36 in 10.0 mi WNW 12.7 mph - N/A   Clear
3:52 PM 27.0 °F 16.1 °F 10.0 °F 49% 30.36 in 10.0 mi WNW 12.7 mph 18.4 mph N/A   Overcast
4:52 PM 25.0 °F 14.2 °F 9.0 °F 51% 30.37 in 10.0 mi WNW 11.5 mph - N/A   Scattered Clouds
5:52 PM 21.9 °F 12.5 °F 9.0 °F 58% 30.39 in 10.0 mi West 8.1 mph - N/A   Clear
6:52 PM 19.9 °F 11.1 °F 8.1 °F 60% 30.41 in 10.0 mi West 6.9 mph - N/A   Clear
7:52 PM 19.0 °F 11.1 °F 9.0 °F 65% 30.42 in 10.0 mi West 5.8 mph - N/A   Clear
8:52 PM 18.0 °F 7.7 °F 10.9 °F 74% 30.43 in 10.0 mi West 8.1 mph - N/A   Clear
9:52 PM 17.1 °F 8.7 °F 10.9 °F 77% 30.43 in 10.0 mi West 5.8 mph - N/A   Clear
10:52 PM 16.0 °F 7.4 °F 10.0 °F 77% 30.43 in 10.0 mi WSW 5.8 mph - N/A   Clear
11:52 PM 15.1 °F 5.2 °F 10.0 °F 80% 30.42 in 10.0 mi WSW 6.9 mph - N/A   Clear